CGUJS KSYR-CYQS

Flight info

Callsign CGUJS
Flight time N/A
Altitude 4500
Route KSYR/CYQS
Aircraft C172/L-VGD/A

Departure

Time 2026-04-22 23:29
Airport Syracuse Hancock International Airport (KSYR)

Arrival

Time N/A
Airport St Thomas Municipal Airport (CYQS)
Time Latitude Longitude Altitude Speed Heading
2026-04-22 23:07 43.11639 -76.10927 409 ft 0 kts 60°
2026-04-22 23:22 43.11632 -76.10823 409 ft 20 kts 131°
2026-04-22 23:22 43.11520 -76.10666 411 ft 24 kts 126°
2026-04-22 23:23 43.11409 -76.10510 415 ft 21 kts 137°
2026-04-22 23:23 43.11311 -76.10370 414 ft 20 kts 133°
2026-04-22 23:23 43.11217 -76.10239 414 ft 19 kts 133°
2026-04-22 23:23 43.11125 -76.10108 411 ft 19 kts 134°
2026-04-22 23:24 43.11039 -76.09984 412 ft 17 kts 135°
2026-04-22 23:24 43.10990 -76.09916 412 ft 0 kts 133°
2026-04-22 23:25 43.11010 -76.09942 412 ft 13 kts 309°
2026-04-22 23:25 43.11035 -76.09902 412 ft 20 kts 92°
2026-04-22 23:25 43.11044 -76.09620 418 ft 34 kts 88°
2026-04-22 23:25 43.11051 -76.09319 419 ft 19 kts 96°
2026-04-22 23:26 43.11000 -76.09264 419 ft 0 kts 184°
2026-04-22 23:28 43.10996 -76.09264 421 ft 5 kts 180°
2026-04-22 23:28 43.10920 -76.09369 420 ft 27 kts 269°
2026-04-22 23:28 43.10900 -76.09864 436 ft 72 kts 269°
2026-04-22 23:28 43.10909 -76.10620 602 ft 82 kts 278°
2026-04-22 23:29 43.10967 -76.11367 931 ft 72 kts 277°
2026-04-22 23:29 43.10996 -76.12039 1228 ft 71 kts 276°
2026-04-22 23:29 43.11049 -76.12726 1419 ft 80 kts 277°
2026-04-22 23:29 43.11123 -76.13591 1516 ft 96 kts 279°
2026-04-22 23:30 43.11200 -76.14495 1729 ft 95 kts 279°
2026-04-22 23:30 43.11258 -76.15418 1882 ft 99 kts 279°
2026-04-22 23:30 43.11309 -76.16387 2016 ft 102 kts 280°
2026-04-22 23:30 43.11375 -76.17342 2164 ft 106 kts 280°
2026-04-22 23:31 43.11495 -76.18388 2093 ft 107 kts 282°
2026-04-22 23:31 43.11602 -76.19348 2011 ft 99 kts 283°
2026-04-22 23:31 43.11718 -76.20260 1936 ft 95 kts 288°
2026-04-22 23:31 43.11886 -76.21122 1880 ft 92 kts 278°
2026-04-22 23:32 43.11853 -76.21966 1810 ft 92 kts 270°
2026-04-22 23:32 43.11774 -76.22830 1697 ft 94 kts 268°
2026-04-22 23:32 43.11667 -76.23665 1742 ft 82 kts 266°
2026-04-22 23:32 43.11556 -76.24390 1789 ft 75 kts 266°
2026-04-22 23:33 43.11447 -76.25070 1793 ft 71 kts 265°
2026-04-22 23:33 43.11345 -76.25708 1786 ft 67 kts 266°
2026-04-22 23:33 43.11236 -76.26346 1826 ft 77 kts 265°
2026-04-22 23:33 43.11144 -76.27130 1906 ft 92 kts 270°
2026-04-22 23:34 43.11080 -76.28042 1916 ft 97 kts 271°
2026-04-22 23:34 43.11061 -76.28643 1889 ft 92 kts 274°
2026-04-22 23:34 43.11043 -76.29486 1820 ft 89 kts 275°
2026-04-22 23:34 43.11048 -76.30325 1765 ft 87 kts 275°
2026-04-22 23:35 43.11049 -76.31155 1730 ft 87 kts 274°
2026-04-22 23:35 43.11021 -76.31963 1725 ft 83 kts 273°
2026-04-22 23:35 43.10964 -76.32730 1764 ft 78 kts 270°
2026-04-22 23:35 43.10887 -76.33474 1736 ft 81 kts 269°
2026-04-22 23:36 43.10790 -76.34220 1746 ft 78 kts 266°
2026-04-22 23:36 43.10700 -76.34941 1701 ft 80 kts 267°
2026-04-22 23:36 43.10607 -76.35692 1722 ft 76 kts 266°
2026-04-22 23:36 43.10542 -76.36399 1767 ft 79 kts 269°
2026-04-22 23:37 43.10479 -76.37154 1881 ft 77 kts 269°
2026-04-22 23:37 43.10407 -76.37901 1873 ft 82 kts 268°
2026-04-22 23:37 43.10306 -76.38644 1954 ft 75 kts 268°
2026-04-22 23:37 43.10247 -76.39368 1872 ft 80 kts 271°
2026-04-22 23:38 43.10212 -76.40139 1801 ft 82 kts 272°
2026-04-22 23:38 43.10200 -76.40896 1797 ft 78 kts 275°
2026-04-22 23:38 43.10207 -76.41661 1760 ft 81 kts 276°
2026-04-22 23:38 43.10213 -76.42430 1779 ft 83 kts 277°
2026-04-22 23:39 43.10231 -76.43202 1772 ft 85 kts 278°
2026-04-22 23:39 43.10255 -76.44013 1789 ft 84 kts 278°
2026-04-22 23:39 43.10254 -76.44814 1819 ft 85 kts 272°
2026-04-22 23:39 43.10184 -76.45624 1845 ft 86 kts 263°
2026-04-22 23:40 43.10018 -76.46398 1899 ft 84 kts 255°
2026-04-22 23:40 43.09793 -76.47158 1862 ft 86 kts 261°
2026-04-22 23:40 43.09720 -76.47936 1844 ft 84 kts 279°
2026-04-22 23:40 43.09788 -76.48747 1814 ft 85 kts 281°
2026-04-22 23:41 43.09839 -76.49541 1822 ft 84 kts 277°
2026-04-22 23:41 43.09754 -76.50369 1823 ft 90 kts 267°
2026-04-22 23:41 43.09642 -76.51217 1821 ft 91 kts 266°
2026-04-22 23:41 43.09529 -76.52076 1826 ft 93 kts 267°
2026-04-22 23:42 43.09395 -76.52951 1829 ft 95 kts 266°
2026-04-22 23:42 43.09262 -76.53834 1820 ft 94 kts 266°
2026-04-22 23:42 43.09137 -76.54699 1818 ft 92 kts 266°
2026-04-22 23:42 43.09025 -76.55557 1820 ft 92 kts 266°
2026-04-22 23:43 43.08912 -76.56434 1822 ft 95 kts 267°
2026-04-22 23:43 43.08790 -76.57330 1827 ft 96 kts 267°
2026-04-22 23:43 43.08652 -76.58231 1821 ft 96 kts 266°
2026-04-22 23:43 43.08515 -76.59122 1824 ft 95 kts 267°
2026-04-22 23:44 43.08382 -76.59997 1823 ft 94 kts 266°
2026-04-22 23:44 43.08257 -76.60876 1821 ft 95 kts 266°
2026-04-22 23:44 43.08127 -76.61773 1828 ft 101 kts 266°
2026-04-22 23:44 43.07990 -76.62760 1827 ft 108 kts 266°
2026-04-22 23:45 43.07851 -76.63772 1829 ft 107 kts 266°
2026-04-22 23:45 43.07711 -76.64773 1830 ft 107 kts 266°
2026-04-22 23:45 43.07572 -76.65770 1832 ft 106 kts 267°
2026-04-22 23:45 43.07421 -76.66762 1831 ft 107 kts 266°
2026-04-22 23:46 43.07284 -76.67758 1837 ft 107 kts 266°
2026-04-22 23:46 43.07147 -76.68756 1838 ft 107 kts 266°
2026-04-22 23:46 43.07010 -76.69756 1838 ft 107 kts 267°
2026-04-22 23:46 43.06860 -76.70747 1832 ft 107 kts 266°
2026-04-22 23:47 43.06713 -76.71740 1832 ft 106 kts 266°
2026-04-22 23:47 43.06572 -76.72725 1831 ft 105 kts 266°
2026-04-22 23:47 43.06433 -76.73707 1829 ft 106 kts 266°
2026-04-22 23:47 43.06291 -76.74733 1839 ft 113 kts 266°
2026-04-22 23:48 43.06150 -76.75793 1835 ft 113 kts 266°
2026-04-22 23:48 43.06007 -76.76849 1827 ft 112 kts 266°
2026-04-22 23:48 43.05879 -76.77894 1826 ft 114 kts 267°
2026-04-22 23:48 43.05751 -76.78961 1823 ft 114 kts 266°
2026-04-22 23:49 43.05613 -76.80027 1826 ft 114 kts 266°
2026-04-22 23:49 43.05471 -76.81093 1832 ft 114 kts 266°
2026-04-22 23:49 43.05328 -76.82164 1833 ft 114 kts 266°
2026-04-22 23:49 43.05187 -76.83238 1828 ft 115 kts 266°
2026-04-22 23:50 43.05048 -76.84307 1827 ft 114 kts 266°
2026-04-22 23:50 43.04906 -76.85374 1828 ft 115 kts 267°